sat.trackr.live / text

‹ back to catalog

YAOGAN-30 11B

NORAD 49028 · 2021-065C

PAYLOAD ACTIVE UNKNOWN

§ Identity

Operator
Country
PRC
Launch date
2021-07-19
Launch site
XICLF
Launch vehicle
Mass (kg)
RCS (m²)

External: N2YO · Heavens-Above · Gunter

§ Orbital elements

Epoch: 2026-09-20T19:53:04.989408Z

Period
95.80 min
Inclination
34.9936°
Eccentricity
0.0000975
Mean motion
15.03072730 rev/d
Perigee alt
556.8 km
Apogee alt
558.1 km
Semi-major
6,935.6 km
B*
1.2588e-4
RAAN
49.6986°
Arg perigee
287.1420°
Mean anomaly
72.9181°
Rev number
28,302

§ Raw data

YAOGAN-30 11B1 49028U 21065C   26263.82852997  .00001702  00000+0  12588-3 0  99922 49028  34.9936  49.6986 0000975 287.1420  72.9181 15.03072730283027

JSON: /api/v1/satellites/49028 · /tle

For live sub-satellite position, see the globe view (requires WebGL).

§ Visibility from observer

Set your observer location to see the next 7 days of passes ≥ 10°. The values pass through the URL so the page stays shareable.

No JS? Fill the form by hand. The geolocation button needs JavaScript.